Regional Weather Roundup
Issued by NWS

Home | Current Version | Previous Version | Text Only | Print | Product List | Glossary Off
Versions: 1 2 3 4 5 6 7 8 9 10 11 12 13 14 15 16 17 18 19 20 21 22 23 24 25 26 27 28 29 30 31 32 33 34 35 36 37 38 39 40 41 42 43 44 45 46 47 48 49 50

000
ASUS43 KMKX 202200
RWRWI

WISCONSIN REGIONAL WEATHER ROUNDUP
NATIONAL WEATHER SERVICE MILWAUKEE/SULLIVAN WI
400 PM CST FRI JAN 20 2017

NOTE: "FAIR" INDICATES FEW OR NO CLOUDS BELOW 12,000 FEET WITH NO
SIGNIFICANT WEATHER AND/OR OBSTRUCTIONS TO VISIBILITY.

WIZ001-002-006>008-014>016-023>028-202300-
NORTHWEST WISCONSIN

CITY           SKY/WX    TMP DP  RH WIND       PRES   REMARKS
SUPERIOR ARPT  RAIN      35  35 100 E7        29.60F WCI  29
ASHLAND        MIX PCPN  34  33  96 CALM      29.63S VSB 3/4
HAYWARD        CLOUDY    37  34  89 E5        29.58F WCI  33
SIREN          CLOUDY    36  35  96 SE3       29.58R FOG
CUMBERLAND     DRZL/FOG  34  32  93 SE7       29.57S VSB 1   WCI  28
RICE LAKE      LGT RAIN  36  35  98 E5        29.58F WCI  32
CHETEK         CLOUDY    35  35  99 SE3       29.58F FOG
LADYSMITH      CLOUDY    37  36  97 SE5       29.61F FOG     WCI  33
EAU CLAIRE     NOT AVBL
MENOMONIE        N/A    N/A N/A N/A MISG        N/A
NEW RICHMOND   CLOUDY    35  35 100 SE5       29.58R FOG     WCI  31
OSCEOLA        CLOUDY    36  36 100 SE7       29.60R FOG     WCI  30
$$

WIZ003>005-009-010-017-018-202300-
NORTH CENTRAL WISCONSIN

CITY           SKY/WX    TMP DP  RH WIND       PRES   REMARKS
MANITOWISH WTR RAIN      35  35 100 SE5       29.62S WCI  30
ARBOR VITAE    LGT SNOW  37  35  95 SE5       29.62S WCI  33
WOODRUFF       LGT SNOW  37  35  95 SE5       29.62S WCI  33
RHINELANDER    LGT SNOW  34  33  96 E8        29.62F FOG     WCI  27
EAGLE RIVER    RAIN      34  34 100 SE3       29.62F
LAND O LAKES   LGT RAIN  36  35  96 CALM      29.65R
PHILLIPS       DRIZZLE   35  35  99 E7        29.59F WCI  29
TOMAHAWK       LGT RAIN  34  33  95 CALM      29.62S
MEDFORD        LGT RAIN  34  33  97 E3        29.59F
MERRILL        LGT RAIN  34  34 100 E3          N/A
$$

WIZ029-030-035-036-043>047-202300-
CENTRAL WISCONSIN

CITY           SKY/WX    TMP DP  RH WIND       PRES   REMARKS
WAUSAU         CLOUDY    34  33  96 E6        29.60F WCI  29
MOSINEE        LGT RAIN  34  34 100 E6        29.62F FOG     WCI  29
MARSHFIELD     CLOUDY    34  33  96 SE8       29.60R FOG     WCI  27
STEVENS POINT  CLOUDY    33  33 100 E7        29.63S FOG     WCI  26
WAUPACA        CLOUDY    38  36  92 CALM      29.63F FOG
WAUTOMA        CLOUDY    36  35  96 SE5       29.65R FOG     WCI  32
WISC RAPIDS    CLOUDY    35  35 100 SE6       29.63S FOG     WCI  30
CAMP DOUGLAS   NOT AVBL
$$

WIZ011>013-019>022-031-037>040-048>050-202300-
NORTHEAST WISCONSIN

CITY           SKY/WX    TMP DP  RH WIND       PRES   REMARKS
ANTIGO         LGT RAIN  33  33 100 E5        29.62F WCI  28
SHAWANO        CLOUDY    36  35  96 E6        29.65S WCI  31
OCONTO         CLOUDY    33  33  98 N7        29.65F WCI  27
STURGEON BAY   LGT RAIN  33  33 100 N8        29.65S FOG     WCI  26
GREEN BAY      CLOUDY    35  35 100 NE13      29.64S FOG     WCI  26
MANITOWOC      CLOUDY    37  36  93 NE6       29.65F FOG     WCI  33
APPLETON       FOG       36  36 100 NE7       29.61F VSB 1/2 WCI  30
CLINTONVILLE   CLOUDY    34  34 100 E5        29.63F FOG     WCI  30
OSHKOSH        CLOUDY    35  34  96 E3        29.63R FOG
$$

WIZ032>034-041-042-053>061-202300-
SOUTHWEST WISCONSIN

CITY           SKY/WX    TMP DP  RH WIND       PRES   REMARKS
LA CROSSE      CLOUDY    41  37  86 E3        29.60R FOG
SPARTA         CLOUDY    35  35 100 SE3       29.62R FOG
VIROQUA        CLOUDY    35  35 100 SE8       29.58S VSB 1/2 WCI  29
BOSCOBEL       FOG       38  37  97 NE3       29.62R VSB 3/4
PRAIRIE DU CHI CLOUDY    37  37  97 CALM      29.60R FOG
PLATTEVILLE    CLOUDY    37  37 100 E5        29.61R VSB<1/4 WCI  34
$$

WIZ056-057-062-063-064-067-068-202300-
SOUTH CENTRAL WISCONSIN

CITY           SKY/WX    TMP DP  RH WIND       PRES   REMARKS
REEDSBURG      CLOUDY    36  36 100 CALM      29.60S FOG
BARABOO/DELLS  FOG       35  35  99 E3        29.61R VSB 1
LONE ROCK      FOG       37  36  96 E7        29.62R VSB 3/4 WCI  32
MINERAL POINT  FOG       37  37 100 SE3       29.60R VSB<1/4
MADISON        DRZL/FOG  37  37 100 E5        29.63R VSB 1/4 WCI  33
MIDDLETON      CLOUDY    38  38 100 SE5       29.62R VSB 1/2 WCI  34
WATERTOWN      CLOUDY    37  37 100 E8        29.62R FOG     WCI  30
MONROE         SNOW      36  36 100 E5        29.61R VSB<1/4 WCI  32
JANESVILLE     FOG       39  39 100 SE5       29.63R VSB 3/4
$$

WIZ051-052-058>065-066-070>072-202300-
SOUTHEAST WISCONSIN

CITY           SKY/WX    TMP DP  RH WIND       PRES   REMARKS
MILWAUKEE      FOG       38  36  92 SE8       29.65R VSB 1/4 WCI  32
WAUKESHA       FOG       36  36 100 E7        29.64R VSB 0   WCI  30
MILWAUKEE/TIMM FOG       37  34  87 E5        29.65R VSB 1/2 WCI  34
RACINE         FOG       37  36  96 SE7       29.66R VSB 1/4 WCI  32
KENOSHA        FOG       38  37  97 SE7       29.64R VSB<1/4 WCI  33
FOND DU LAC    CLOUDY    38  33  82 E5        29.63S WCI  34
SHEBOYGAN      CLOUDY    36  34  92 NE5       29.64F FOG     WCI  32
WEST BEND      CLOUDY    36  36 100 E5        29.63R FOG     WCI  32
JUNEAU         CLOUDY    36  35  97 E8        29.63R FOG     WCI  30
$$

LSZ147-162-202300-
LAKE SUPERIOR

STATION/POSITION TIME  TEMP    WIND        PRES    WAVE
                       AIR SEA DIR/SP/G            HT/PER
                 (UTC) (F)     (DEG/KT/KT) (MB)    (FT/S)
DEVILS ISLAND    2100   35      60/ 10/ 10 1004.0F
PORT WING        2130   36      40/  2/  3 1003.4S
SAXON HARBOR     2130   34      CALM  /  1 1003.4S
$$

LMZ867-665-643>646-202300-
LAKE MICHIGAN

STATION/POSITION TIME  TEMP    WIND        PRES    WAVE
                       AIR SEA DIR/SP/G            HT/PER
                 (UTC) (F)     (DEG/KT/KT) (MB)    (FT/S)
NORTHPORT PIER   2140   32     330/  6/  7 1005.1S
SISTER BAY       2120   32     360/  9/  9   N/A
KEWAUNEE LAKESHO 2130   36      20/  6/  9 1003.7R
SHEBOYGAN LAKESH 2100   34      20/  7/  8 1004.2S
PORT WASHINGTON  2130   36      70/  4/  5 1005.1F
KENOSHA   LAKESH 2100   35      90/  3/  5 1003.7
$$

TC  - TEMPERATURE IN CELSIUS
VSB - VISIBILITY IN STATUTE MILES
WCI - WIND CHILL INDEX
HX  - HEAT INDEX





USA.gov is the U.S. government's official web portal to all federal, state and local government web resources and services.